Location: Munkebjergskolens Observatorium
(55.3864°N, 10.3987°E)
Time: 04:23:48
(UTC+02:00)

CAS-6 - Pass Details

Date: 31 March 2023
Orbit: 610 x 632 km, 97.9° (Epoch: 31 May)

Event Time Altitude Azimuth Distance (km) Brightness Sun altitude
Exits shadow 23:19:30 78° 344° (NNW) 644 ? -25.1°
Drops below altitude 10° 23:23:36 10° 345° (NNW) 2,013 ? -25.5°
Sets 23:25:49 0° 345° (NNW) 2,929 ? -25.6°
